Time,TemperatureF,DewpointF,PressureIn,WindDirection,WindDirectionDegrees,WindSpeedMPH,WindSpeedGustMPH,Humidity,HourlyPrecipIn,Conditions,Clouds,dailyrainin,SoftwareType,DateUTC
2014-09-16 00:09:00,59.1,58.0,30.08,WSW,249,0.0,3.0,95,0.00,,,0.14,weatherlink.com 1.10,2014-09-16 04:09:00,
2014-09-16 00:24:00,58.9,58.0,30.08,West,264,0.0,1.0,95,0.00,,,0.00,weatherlink.com 1.10,2014-09-16 04:24:00,
2014-09-16 00:39:00,58.8,57.0,30.08,South,189,0.0,2.0,95,0.00,,,0.00,weatherlink.com 1.10,2014-09-16 04:39:00,
2014-09-16 00:55:00,58.7,57.0,30.09,West,274,0.0,1.0,95,0.00,,,0.00,weatherlink.com 1.10,2014-09-16 04:55:00,
2014-09-16 01:10:00,58.7,57.0,30.09,NW,325,0.0,3.0,95,0.00,,,0.00,weatherlink.com 1.10,2014-09-16 05:10:00,
2014-09-16 01:25:00,58.7,57.0,30.09,NNW,338,0.0,2.0,95,0.00,,,0.00,weatherlink.com 1.10,2014-09-16 05:25:00,
2014-09-16 01:40:00,58.6,57.0,30.08,NNW,338,0.0,0.0,95,0.00,,,0.00,weatherlink.com 1.10,2014-09-16 05:40:00,
2014-09-16 01:55:00,58.6,57.0,30.08,NNW,338,0.0,0.0,95,0.00,,,0.00,weatherlink.com 1.10,2014-09-16 05:55:00,
2014-09-16 02:10:00,58.4,57.0,30.07,ENE,78,0.0,1.0,95,0.00,,,0.00,weatherlink.com 1.10,2014-09-16 06:10:00,
2014-09-16 02:25:00,58.4,57.0,30.08,ENE,78,0.0,0.0,96,0.00,,,0.00,weatherlink.com 1.10,2014-09-16 06:25:00,
2014-09-16 02:40:00,58.4,57.0,30.08,ENE,78,0.0,0.0,95,0.00,,,0.00,weatherlink.com 1.10,2014-09-16 06:40:00,
2014-09-16 02:55:00,58.4,57.0,30.07,ENE,78,0.0,0.0,95,0.00,,,0.00,weatherlink.com 1.10,2014-09-16 06:55:00,
2014-09-16 03:10:00,58.4,57.0,30.07,ENE,78,0.0,1.0,95,0.00,,,0.00,weatherlink.com 1.10,2014-09-16 07:10:00,
2014-09-16 03:25:00,58.4,57.0,30.07,ENE,78,0.0,0.0,96,0.01,,,0.01,weatherlink.com 1.10,2014-09-16 07:25:00,
2014-09-16 03:40:00,58.3,57.0,30.07,ENE,78,0.0,0.0,96,0.01,,,0.01,weatherlink.com 1.10,2014-09-16 07:40:00,
2014-09-16 03:55:00,58.4,57.0,30.07,ENE,78,0.0,0.0,96,0.01,,,0.01,weatherlink.com 1.10,2014-09-16 07:55:00,
2014-09-16 04:10:00,58.4,57.0,30.07,ENE,78,0.0,0.0,96,0.01,,,0.01,weatherlink.com 1.10,2014-09-16 08:10:00,
2014-09-16 04:25:00,58.4,57.0,30.07,ENE,78,0.0,0.0,96,0.01,,,0.02,weatherlink.com 1.10,2014-09-16 08:25:00,
2014-09-16 04:40:00,58.3,57.0,30.07,ENE,78,0.0,0.0,96,0.01,,,0.02,weatherlink.com 1.10,2014-09-16 08:40:00,
2014-09-16 04:55:00,58.2,57.0,30.07,ENE,78,0.0,0.0,96,0.01,,,0.02,weatherlink.com 1.10,2014-09-16 08:55:00,
2014-09-16 05:10:00,58.3,57.0,30.07,ENE,78,0.0,0.0,96,0.01,,,0.02,weatherlink.com 1.10,2014-09-16 09:10:00,
2014-09-16 05:25:00,58.3,57.0,30.08,ENE,78,0.0,0.0,96,0.00,,,0.02,weatherlink.com 1.10,2014-09-16 09:25:00,
2014-09-16 05:40:00,58.3,57.0,30.08,ENE,78,0.0,0.0,96,0.00,,,0.02,weatherlink.com 1.10,2014-09-16 09:40:00,
2014-09-16 05:55:00,58.3,57.0,30.08,ENE,78,0.0,0.0,96,0.00,,,0.02,weatherlink.com 1.10,2014-09-16 09:55:00,
2014-09-16 06:10:00,58.3,57.0,30.09,ENE,71,0.0,0.0,96,0.00,,,0.02,weatherlink.com 1.10,2014-09-16 10:10:00,
2014-09-16 06:25:00,58.3,57.0,30.09,ENE,71,0.0,0.0,96,0.00,,,0.02,weatherlink.com 1.10,2014-09-16 10:25:00,
2014-09-16 06:40:00,58.2,57.0,30.10,ENE,71,0.0,0.0,96,0.00,,,0.02,weatherlink.com 1.10,2014-09-16 10:40:00,
2014-09-16 06:55:00,57.9,57.0,30.10,ENE,71,0.0,0.0,96,0.00,,,0.02,weatherlink.com 1.10,2014-09-16 10:55:00,
2014-09-16 07:10:00,57.8,57.0,30.10,ENE,60,0.0,2.0,96,0.00,,,0.02,weatherlink.com 1.10,2014-09-16 11:10:00,
2014-09-16 07:25:00,57.9,57.0,30.11,NE,50,0.0,2.0,96,0.00,,,0.02,weatherlink.com 1.10,2014-09-16 11:25:00,
2014-09-16 07:40:00,57.8,57.0,30.11,NE,50,0.0,0.0,96,0.00,,,0.02,weatherlink.com 1.10,2014-09-16 11:40:00,
2014-09-16 07:55:00,57.8,57.0,30.12,NE,50,0.0,1.0,96,0.00,,,0.02,weatherlink.com 1.10,2014-09-16 11:55:00,
2014-09-16 08:10:00,57.5,56.0,30.12,NE,50,0.0,1.0,96,0.00,,,0.02,weatherlink.com 1.10,2014-09-16 12:10:00,
2014-09-16 08:25:00,57.1,56.0,30.12,NE,49,0.0,3.0,96,0.00,,,0.02,weatherlink.com 1.10,2014-09-16 12:25:00,